Hourly Weather Inverclyde

Today, 21 January, Thursday

Time Temperature Precipitation Wind Pressure Humidity
00:00 +1°C° 0.7 mm 2 mps 728 mmHg 98%
01:00 +1°C° 1.6 mm 2 mps 727 mmHg 98%
02:00 +1°C° 1.6 mm 3 mps 727 mmHg 98%
03:00 +1°C° 1.6 mm 3 mps 726 mmHg 98%
04:00 0°C° 1 mm 4 mps 726 mmHg 98%
05:00 0°C° 1 mm 5 mps 725 mmHg 98%
06:00 -1°C° 1 mm 6 mps 725 mmHg 98%
07:00 -1°C° 1.2 mm 6 mps 725 mmHg 98%
08:00 -1°C° 1.2 mm 7 mps 724 mmHg 98%
09:00 -1°C° 1.2 mm 8 mps 724 mmHg 98%
10:00 -1°C° 0.5 mm 7 mps 725 mmHg 96%
11:00 0°C° 0.5 mm 7 mps 725 mmHg 94%
12:00 +1°C° 0.5 mm 6 mps 725 mmHg 93%
13:00 +1°C° 0.1 mm 6 mps 726 mmHg 92%
14:00 +1°C° 0.1 mm 6 mps 726 mmHg 91%
15:00 +1°C° 0.1 mm 6 mps 726 mmHg 91%
16:00 +1°C° 0.1 mm 6 mps 727 mmHg 91%
17:00 -1°C° 0.1 mm 6 mps 727 mmHg 92%
18:00 0°C° 0.1 mm 5 mps 728 mmHg 92%
19:00 0°C° 0.1 mm 5 mps 728 mmHg 92%
20:00 0°C° 0.1 mm 5 mps 729 mmHg 91%
21:00 -1°C° 0.1 mm 5 mps 729 mmHg 91%
22:00 -1°C° 0.1 mm 5 mps 729 mmHg 91%
23:00 -1°C° 0.1 mm 5 mps 730 mmHg 91%

Tomorrow, 22 January, Friday

Time Temperature Precipitation Wind Pressure Humidity
00:00 -1°C° 0.1 mm 5 mps 730 mmHg 91%
01:00 -2°C° 0.5 mm 6 mps 731 mmHg 91%
02:00 -2°C° 0.5 mm 6 mps 732 mmHg 92%
03:00 -2°C° 0.5 mm 6 mps 732 mmHg 92%
04:00 -1°C° 0.1 mm 5 mps 733 mmHg 91%
05:00 -2°C° 0.1 mm 4 mps 733 mmHg 89%
06:00 -3°C° 0.1 mm 4 mps 734 mmHg 88%
07:00 -3°C° 0 mm 4 mps 735 mmHg 88%
08:00 -3°C° 0 mm 4 mps 735 mmHg 89%
09:00 -4°C° 0 mm 4 mps 735 mmHg 90%
10:00 -3°C° 0 mm 4 mps 736 mmHg 88%
11:00 -2°C° 0 mm 4 mps 736 mmHg 87%
12:00 -2°C° 0 mm 4 mps 737 mmHg 85%
13:00 -2°C° 0 mm 4 mps 737 mmHg 86%
14:00 -2°C° 0 mm 4 mps 737 mmHg 86%
15:00 -2°C° 0 mm 5 mps 737 mmHg 87%
16:00 -2°C° 0 mm 4 mps 737 mmHg 86%
17:00 -3°C° 0 mm 4 mps 737 mmHg 85%
18:00 -4°C° 0 mm 4 mps 738 mmHg 84%
19:00 -4°C° 0 mm 4 mps 738 mmHg 84%
20:00 -4°C° 0 mm 4 mps 738 mmHg 84%
21:00 -5°C° 0 mm 5 mps 738 mmHg 84%
22:00 -4°C° 0.1 mm 4 mps 738 mmHg 86%
23:00 -4°C° 0.1 mm 4 mps 738 mmHg 88%

Day after tomorrow, 23 January, Saturday

Time Temperature Precipitation Wind Pressure Humidity
00:00 -3°C° 0.1 mm 4 mps 738 mmHg 91%
01:00 -4°C° 0 mm 4 mps 738 mmHg 90%
02:00 -4°C° 0 mm 4 mps 738 mmHg 89%
03:00 -5°C° 0 mm 4 mps 738 mmHg 87%
04:00 -5°C° 0 mm 4 mps 738 mmHg 87%
05:00 -5°C° 0 mm 4 mps 738 mmHg 87%
06:00 -5°C° 0 mm 4 mps 738 mmHg 86%
07:00 -5°C° 0 mm 4 mps 739 mmHg 87%
08:00 -4°C° 0 mm 4 mps 739 mmHg 88%
09:00 -5°C° 0 mm 5 mps 739 mmHg 88%
10:00 -3°C° 0 mm 4 mps 739 mmHg 87%
11:00 -2°C° 0 mm 4 mps 739 mmHg 86%
12:00 -1°C° 0 mm 4 mps 739 mmHg 85%
13:00 -1°C° 0 mm 4 mps 739 mmHg 85%
14:00 -1°C° 0 mm 4 mps 739 mmHg 86%
15:00 -1°C° 0 mm 4 mps 739 mmHg 86%
16:00 -2°C° 0 mm 4 mps 739 mmHg 86%
17:00 -3°C° 0 mm 4 mps 739 mmHg 87%
18:00 -4°C° 0 mm 4 mps 739 mmHg 87%
19:00 -5°C° 0 mm 3 mps 739 mmHg 87%
20:00 -5°C° 0 mm 3 mps 739 mmHg 87%
21:00 -5°C° 0 mm 3 mps 739 mmHg 87%
22:00 -6°C° 0 mm 3 mps 739 mmHg 88%
23:00 -6°C° 0 mm 3 mps 739 mmHg 88%

24 January, Sunday

Time Temperature Precipitation Wind Pressure Humidity
00:00 -6°C° 0 mm 3 mps 739 mmHg 88%
01:00 -6°C° 0 mm 3 mps 739 mmHg 88%
02:00 -6°C° 0 mm 3 mps 739 mmHg 89%
03:00 -6°C° 0 mm 3 mps 739 mmHg 90%
04:00 -6°C° 0 mm 3 mps 739 mmHg 90%
05:00 -6°C° 0 mm 3 mps 739 mmHg 90%
06:00 -5°C° 0 mm 2 mps 739 mmHg 90%
07:00 -5°C° 0 mm 2 mps 739 mmHg 90%
08:00 -4°C° 0 mm 2 mps 739 mmHg 90%
09:00 -4°C° 0 mm 2 mps 739 mmHg 90%
10:00 -2°C° 0.1 mm 2 mps 740 mmHg 90%
11:00 -1°C° 0.1 mm 2 mps 740 mmHg 90%
12:00 +1°C° 0.1 mm 2 mps 741 mmHg 91%
13:00 +1°C° 0.1 mm 2 mps 741 mmHg 92%
14:00 +1°C° 0.1 mm 2 mps 741 mmHg 93%
15:00 +1°C° 0.1 mm 2 mps 742 mmHg 95%
16:00 +1°C° 0 mm 2 mps 742 mmHg 95%
17:00 +1°C° 0 mm 2 mps 743 mmHg 95%
18:00 +2°C° 0 mm 1 mps 743 mmHg 96%
19:00 +2°C° 0 mm 1 mps 744 mmHg 96%
20:00 +2°C° 0 mm 1 mps 744 mmHg 96%
21:00 +2°C° 0 mm 1 mps 745 mmHg 96%
22:00 +2°C° 0 mm 1 mps 745 mmHg 96%
23:00 +1°C° 0 mm 2 mps 746 mmHg 97%

25 January, Monday

Time Temperature Precipitation Wind Pressure Humidity
00:00 +2°C° 0 mm 2 mps 746 mmHg 97%
01:00 +1°C° 0 mm 2 mps 746 mmHg 96%
02:00 +1°C° 0 mm 2 mps 747 mmHg 96%
03:00 -1°C° 0 mm 2 mps 747 mmHg 95%
04:00 -1°C° 0 mm 3 mps 747 mmHg 95%
05:00 -1°C° 0 mm 3 mps 747 mmHg 94%
06:00 -1°C° 0 mm 3 mps 748 mmHg 94%
07:00 -1°C° 0 mm 3 mps 748 mmHg 93%
08:00 -1°C° 0 mm 3 mps 748 mmHg 93%
09:00 -1°C° 0 mm 3 mps 748 mmHg 93%
10:00 -2°C° 0 mm 4 mps 749 mmHg 93%
11:00 -1°C° 0 mm 4 mps 749 mmHg 92%
12:00 0°C° 0 mm 4 mps 749 mmHg 91%
13:00 +1°C° 0 mm 3 mps 749 mmHg 91%
14:00 +1°C° 0 mm 3 mps 749 mmHg 92%
15:00 +1°C° 0 mm 3 mps 750 mmHg 92%
16:00 +1°C° 0 mm 2 mps 750 mmHg 93%
17:00 +1°C° 0 mm 2 mps 750 mmHg 93%
18:00 -1°C° 0 mm 2 mps 750 mmHg 93%
19:00 -2°C° 0 mm 2 mps 751 mmHg 93%
20:00 -2°C° 0 mm 2 mps 751 mmHg 93%
21:00 -3°C° 0 mm 2 mps 751 mmHg 93%
22:00 -3°C° 0 mm 2 mps 751 mmHg 93%
23:00 -1°C° 0 mm 1 mps 751 mmHg 92%

26 January, Tuesday

Time Temperature Precipitation Wind Pressure Humidity
00:00 -1°C° 0 mm 1 mps 751 mmHg 92%
01:00 -2°C° 0 mm 1 mps 751 mmHg 91%
02:00 -2°C° 0 mm 1 mps 751 mmHg 91%
03:00 -2°C° 0 mm 1 mps 751 mmHg 90%
04:00 -2°C° 0 mm 1 mps 750 mmHg 90%
05:00 -3°C° 0 mm 1 mps 750 mmHg 90%
06:00 -3°C° 0 mm 1 mps 750 mmHg 90%
07:00 -3°C° 0 mm 1 mps 749 mmHg 90%
08:00 -4°C° 0 mm 0 mps 749 mmHg 90%
09:00 -3°C° 0 mm 0 mps 749 mmHg 90%
10:00 -1°C° 0 mm 1 mps 749 mmHg 89%
11:00 0°C° 0 mm 1 mps 749 mmHg 89%
12:00 +1°C° 0 mm 1 mps 749 mmHg 89%
13:00 -1°C° 0 mm 2 mps 749 mmHg 90%
14:00 -1°C° 0 mm 2 mps 749 mmHg 91%
15:00 +1°C° 0 mm 2 mps 749 mmHg 92%
16:00 -1°C° 0 mm 2 mps 750 mmHg 92%
17:00 0°C° 0 mm 1 mps 751 mmHg 92%
18:00 -1°C° 0 mm 1 mps 752 mmHg 92%
19:00 -1°C° 0 mm 1 mps 753 mmHg 92%
20:00 -1°C° 0 mm 1 mps 753 mmHg 93%
21:00 -1°C° 0 mm 1 mps 754 mmHg 93%
22:00 -2°C° 0 mm 1 mps 755 mmHg 93%
23:00 -2°C° 0 mm 1 mps 755 mmHg 94%
Show more